Location: ?
(35.4996°N, 139.3166°E)
Time: 10:44:43
(UTC+00:00)

SL-16 R/B - Pass Details

Date: 18 April 2024
Orbit: 985 x 1006 km, 99.7° (Epoch: 18 May)

Event Time Altitude Azimuth Distance (km) Brightness Sun altitude
Exits shadow 18:41:11 23° 263° (W) 1,961 3.5 -16.8°
Maximum altitude 18:41:20 23° 265° (W) 1,960 3.6 -16.8°
Drops below altitude 10° 18:46:09 10° 316° (NW) 2,766 4.7 -15.9°
Sets 18:49:13 0° 330° (NNW) 3,723 5.5 -15.3°
